Location: Peebles
(55.6412°N, 3.1714°W)
Time: 23:25:54
(UTC+00:00)

ATLAS 5 CENTAUR R/B - Visible Passes

Search period start: 27 January 2022 00:00
Search period end: 06 February 2022 00:00
Orbit: 301 x 13988 km, 60.8° (Epoch: 26 January)

Date Brightness Start Highest point End Pass type
(mag) Time Alt. Az. Time Alt. Az. Time Alt. Az.
27 Jan 6.9 03:28:29 10° S 04:30:15 50° SE 04:44:42 10° NE visible
28 Jan 7.6 01:28:16 10° SE 02:07:19 24° ESE 02:23:07 10° ENE visible
28 Jan 5.8 05:44:20 10° SW 06:42:45 82° SE 06:53:08 10° ENE visible
29 Jan 6.9 03:16:53 10° S 04:19:05 51° SE 04:33:35 10° NE visible
30 Jan 7.6 01:16:14 10° SE 01:55:59 25° ESE 02:11:54 10° ENE visible
30 Jan 5.8 05:32:49 10° SW 06:31:27 82° SE 06:41:50 10° ENE visible
31 Jan 6.9 03:04:59 10° S 04:07:39 51° SE 04:22:10 10° NE visible
01 Feb 7.6 01:04:01 10° SE 01:44:22 25° ESE 02:00:24 10° ENE visible
01 Feb 5.8 05:20:59 10° SW 06:19:51 82° SE 06:30:16 10° ENE visible
02 Feb 6.8 02:52:50 10° S 03:55:53 52° SE 04:10:27 10° NE visible
03 Feb 7.5 00:51:35 10° SE 01:32:27 25° ESE 01:48:35 10° ENE visible
03 Feb 5.8 05:08:49 10° SW 06:07:57 83° SE 06:18:24 10° ENE visible
04 Feb 6.8 02:40:23 10° S 03:43:50 52° SE 03:58:27 10° NE visible
05 Feb 7.5 00:38:55 10° SE 01:20:15 26° ESE 01:36:30 10° ENE visible
05 Feb 5.8 04:56:18 10° SW 05:55:44 83° SE 06:06:14 10° ENE visible
